When you browse on this site, cookies collect data to enhance your experience and personalize the content and advertising you see.
Visit our Privacy Policy to learn more. By continuing to use the site, you agree to this use of cookies and data.
  • In Hungary
  • List of Countries
  • For 7 days
  • Water Temperature
  • Satellite Maps
  • Weather Map
  • News
  • Weather Widgets
  • user-avatar
    Login

    Hourly Weather Zaborze

    Today, 22 May, Wednesday

    Time Temperature Precipitation Wind Pressure Humidity
    00:00 +13°C° 0.3 mm 5 mps 731 mmHg 90%
    01:00 +13°C° 0.3 mm 4 mps 730 mmHg 92%
    02:00 +13°C° 0.7 mm 4 mps 730 mmHg 92%
    03:00 +13°C° 0.7 mm 4 mps 730 mmHg 93%
    04:00 +13°C° 0.7 mm 4 mps 730 mmHg 94%
    05:00 +14°C° 0.5 mm 4 mps 731 mmHg 93%
    06:00 +14°C° 0.5 mm 4 mps 731 mmHg 92%
    07:00 +14°C° 0.5 mm 4 mps 731 mmHg 91%
    08:00 +15°C° 0.5 mm 4 mps 731 mmHg 87%
    09:00 +17°C° 0.5 mm 4 mps 732 mmHg 83%
    10:00 +17°C° 0.5 mm 4 mps 732 mmHg 79%
    11:00 +18°C° 1.2 mm 4 mps 732 mmHg 77%
    12:00 +18°C° 1.2 mm 3 mps 732 mmHg 76%
    13:00 +19°C° 1.2 mm 3 mps 732 mmHg 74%
    14:00 +18°C° 1.7 mm 4 mps 732 mmHg 77%
    15:00 +17°C° 1.7 mm 5 mps 733 mmHg 79%
    16:00 +17°C° 1.7 mm 6 mps 733 mmHg 81%
    17:00 +16°C° 1.7 mm 6 mps 733 mmHg 85%
    18:00 +15°C° 1.7 mm 6 mps 733 mmHg 88%
    19:00 +14°C° 1.7 mm 6 mps 733 mmHg 92%
    20:00 +14°C° 1.1 mm 6 mps 734 mmHg 92%
    21:00 +14°C° 1.1 mm 6 mps 734 mmHg 93%
    22:00 +13°C° 1.1 mm 6 mps 734 mmHg 93%
    23:00 +13°C° 0.5 mm 6 mps 735 mmHg 93%

    Tomorrow, 23 May, Thursday

    Time Temperature Precipitation Wind Pressure Humidity
    00:00 +13°C° 0.5 mm 5 mps 735 mmHg 94%
    01:00 +13°C° 0.5 mm 5 mps 735 mmHg 94%
    02:00 +12°C° 0.6 mm 5 mps 735 mmHg 94%
    03:00 +12°C° 0.6 mm 5 mps 736 mmHg 94%
    04:00 +12°C° 0.6 mm 5 mps 736 mmHg 94%
    05:00 +12°C° 1.8 mm 5 mps 736 mmHg 94%
    06:00 +12°C° 1.8 mm 5 mps 736 mmHg 94%
    07:00 +12°C° 1.8 mm 5 mps 737 mmHg 94%
    08:00 +12°C° 1.3 mm 5 mps 737 mmHg 94%
    09:00 +12°C° 1.3 mm 5 mps 738 mmHg 93%
    10:00 +12°C° 1.3 mm 5 mps 738 mmHg 93%
    11:00 +10°C° 0.3 mm 5 mps 738 mmHg 92%
    12:00 +10°C° 0.3 mm 5 mps 738 mmHg 92%
    13:00 +11°C° 0.3 mm 4 mps 739 mmHg 92%
    14:00 +11°C° 0.2 mm 4 mps 739 mmHg 92%
    15:00 +11°C° 0.2 mm 4 mps 739 mmHg 92%
    16:00 +11°C° 0.2 mm 3 mps 739 mmHg 91%
    17:00 +11°C° 0.1 mm 3 mps 739 mmHg 90%
    18:00 +11°C° 0.1 mm 3 mps 739 mmHg 89%
    19:00 +11°C° 0.1 mm 3 mps 739 mmHg 88%
    20:00 +12°C° 0 mm 2 mps 739 mmHg 87%
    21:00 +12°C° 0 mm 2 mps 740 mmHg 86%
    22:00 +12°C° 0 mm 2 mps 740 mmHg 86%
    23:00 +12°C° 0 mm 2 mps 740 mmHg 86%

    Day after tomorrow, 24 May, Friday

    Time Temperature Precipitation Wind Pressure Humidity
    00:00 +10°C° 0 mm 2 mps 740 mmHg 87%
    01:00 +10°C° 0 mm 2 mps 740 mmHg 87%
    02:00 +10°C° 0 mm 2 mps 740 mmHg 89%
    03:00 +9°C° 0 mm 2 mps 740 mmHg 90%
    04:00 +8°C° 0 mm 2 mps 740 mmHg 91%
    05:00 +9°C° 0 mm 2 mps 740 mmHg 85%
    06:00 +10°C° 0 mm 2 mps 740 mmHg 79%
    07:00 +13°C° 0 mm 2 mps 740 mmHg 73%
    08:00 +14°C° 0 mm 2 mps 740 mmHg 63%
    09:00 +15°C° 0 mm 2 mps 740 mmHg 54%
    10:00 +17°C° 0 mm 3 mps 740 mmHg 44%
    11:00 +18°C° 0 mm 2 mps 740 mmHg 43%
    12:00 +19°C° 0 mm 2 mps 739 mmHg 41%
    13:00 +20°C° 0 mm 2 mps 739 mmHg 40%
    14:00 +20°C° 0 mm 2 mps 739 mmHg 42%
    15:00 +20°C° 0 mm 2 mps 738 mmHg 45%
    16:00 +20°C° 0 mm 2 mps 738 mmHg 47%
    17:00 +18°C° 0 mm 2 mps 738 mmHg 54%
    18:00 +18°C° 0 mm 1 mps 738 mmHg 62%
    19:00 +16°C° 0 mm 1 mps 738 mmHg 69%
    20:00 +15°C° 0 mm 1 mps 738 mmHg 72%
    21:00 +14°C° 0 mm 1 mps 738 mmHg 75%
    22:00 +13°C° 0 mm 1 mps 738 mmHg 79%
    23:00 +12°C° 0 mm 1 mps 738 mmHg 80%

    25 May, Saturday

    Time Temperature Precipitation Wind Pressure Humidity
    00:00 +12°C° 0 mm 1 mps 738 mmHg 82%
    01:00 +12°C° 0 mm 2 mps 738 mmHg 84%
    02:00 +10°C° 0 mm 2 mps 738 mmHg 85%
    03:00 +10°C° 0 mm 2 mps 738 mmHg 86%
    04:00 +10°C° 0 mm 2 mps 738 mmHg 86%
    05:00 +13°C° 0 mm 2 mps 738 mmHg 81%
    06:00 +14°C° 0 mm 2 mps 738 mmHg 75%
    07:00 +16°C° 0 mm 2 mps 738 mmHg 69%
    08:00 +17°C° 0.1 mm 3 mps 738 mmHg 67%
    09:00 +19°C° 0.1 mm 3 mps 738 mmHg 65%
    10:00 +20°C° 0.1 mm 3 mps 738 mmHg 63%
    11:00 +20°C° 0.1 mm 4 mps 738 mmHg 60%
    12:00 +21°C° 0.1 mm 4 mps 738 mmHg 57%
    13:00 +22°C° 0.1 mm 4 mps 737 mmHg 55%
    14:00 +21°C° 0.2 mm 4 mps 737 mmHg 56%
    15:00 +21°C° 0.2 mm 4 mps 737 mmHg 58%
    16:00 +21°C° 0.2 mm 4 mps 737 mmHg 60%
    17:00 +20°C° 0 mm 3 mps 737 mmHg 64%
    18:00 +18°C° 0 mm 2 mps 737 mmHg 68%
    19:00 +17°C° 0 mm 2 mps 737 mmHg 72%
    20:00 +16°C° 0 mm 1 mps 738 mmHg 75%
    21:00 +14°C° 0 mm 1 mps 738 mmHg 78%
    22:00 +13°C° 0 mm 1 mps 738 mmHg 81%
    23:00 +13°C° 0 mm 1 mps 738 mmHg 81%

    26 May, Sunday

    Time Temperature Precipitation Wind Pressure Humidity
    00:00 +13°C° 0 mm 1 mps 738 mmHg 82%
    01:00 +13°C° 0 mm 1 mps 738 mmHg 82%
    02:00 +12°C° 0 mm 1 mps 738 mmHg 84%
    03:00 +11°C° 0 mm 1 mps 738 mmHg 86%
    04:00 +11°C° 0 mm 1 mps 738 mmHg 88%
    05:00 +12°C° 0 mm 2 mps 738 mmHg 84%
    06:00 +13°C° 0 mm 2 mps 738 mmHg 79%
    07:00 +15°C° 0 mm 2 mps 738 mmHg 75%
    08:00 +16°C° 0 mm 3 mps 738 mmHg 68%
    09:00 +17°C° 0 mm 4 mps 738 mmHg 62%
    10:00 +17°C° 0 mm 5 mps 738 mmHg 55%
    11:00 +19°C° 0 mm 5 mps 737 mmHg 52%
    12:00 +20°C° 0 mm 5 mps 737 mmHg 48%
    13:00 +20°C° 0 mm 6 mps 737 mmHg 45%
    14:00 +20°C° 0 mm 6 mps 737 mmHg 48%
    15:00 +20°C° 0 mm 6 mps 737 mmHg 52%
    16:00 +19°C° 0 mm 6 mps 736 mmHg 55%
    17:00 +17°C° 0 mm 5 mps 737 mmHg 61%
    18:00 +17°C° 0 mm 4 mps 737 mmHg 66%
    19:00 +16°C° 0 mm 2 mps 737 mmHg 72%
    20:00 +15°C° 0 mm 2 mps 737 mmHg 74%
    21:00 +14°C° 0 mm 2 mps 737 mmHg 77%
    22:00 +14°C° 0 mm 2 mps 737 mmHg 80%
    23:00 +13°C° 0 mm 2 mps 737 mmHg 81%

    27 May, Monday

    Time Temperature Precipitation Wind Pressure Humidity
    00:00 +12°C° 0 mm 3 mps 738 mmHg 81%
    01:00 +12°C° 0 mm 3 mps 738 mmHg 81%
    02:00 +12°C° 0 mm 3 mps 738 mmHg 83%
    03:00 +11°C° 0 mm 3 mps 738 mmHg 84%
    04:00 +11°C° 0 mm 3 mps 738 mmHg 86%
    05:00 +12°C° 0 mm 3 mps 738 mmHg 82%
    06:00 +14°C° 0 mm 3 mps 738 mmHg 78%
    07:00 +16°C° 0 mm 3 mps 738 mmHg 74%
    08:00 +18°C° 0 mm 3 mps 738 mmHg 69%
    09:00 +20°C° 0 mm 4 mps 738 mmHg 64%
    10:00 +21°C° 0 mm 4 mps 738 mmHg 59%
    11:00 +22°C° 0.2 mm 4 mps 738 mmHg 58%
    12:00 +23°C° 0.2 mm 5 mps 737 mmHg 58%
    13:00 +23°C° 0.2 mm 5 mps 737 mmHg 58%
    14:00 +23°C° 0.7 mm 5 mps 736 mmHg 61%
    15:00 +23°C° 0.7 mm 5 mps 736 mmHg 65%
    16:00 +22°C° 0.7 mm 4 mps 736 mmHg 69%
    17:00 +21°C° 0.9 mm 4 mps 736 mmHg 72%
    18:00 +20°C° 0.9 mm 4 mps 736 mmHg 76%
    19:00 +19°C° 0.9 mm 4 mps 736 mmHg 79%
    20:00 +18°C° 0.4 mm 3 mps 736 mmHg 83%
    21:00 +17°C° 0.4 mm 2 mps 737 mmHg 86%
    22:00 +16°C° 0.4 mm 2 mps 737 mmHg 90%
    23:00 +16°C° 0 mm 2 mps 737 mmHg 90%
    Show more